[[{"header":{"parameterUnit":"m.s-1","parameterCategory":1,"la1":30.2991,"la2":30.254,"lo1":-89.0895,"lo2":-89.0444,"dy":0.0017,"dx":0.0017,"nx":28,"ny":28,"refTime":"2024-12-09T09:00:00:Z","depth":0,"parameterNumber":2,"parameterNumberName":"U-component_of_WINDS"},"data":[0,0,0,0,0,0,0,0,0,0,0,0,0,0,0,0,0,0,0,0,0,0,0,0,0,0,0,0,0,0,0,0,0,0,0,0,0,0,0,0,0,0,0,0,0,0,0,0,0,0,0,0,0,0,0,0,0,0,0.4136,0.4136,0,0.415,0.415,0.415,0.412,0.4119,0.4118,0.4117,0.4133,0.4134,0.4136,0,0,0,0,0,0,0,0,0,0,0,0,0,0.4086,0.4088,0.4136,0.4136,0.4137,0.415,0.415,0.415,0.412,0.4119,0.4117,0.4116,0.4133,0.4134,0.4136,0,0,0,0,0,0,0,0,0,0,0,0,0,0.4105,0.4088,0.4136,0.4123,0.4122,0.415,0.415,0.415,0.412,0.4119,0.4117,0.4116,0.4132,0.4134,0.4136,0.4178,0,0,0.4142,0.4143,0,0,0,0,0,0,0,0,0.4104,0.4107,0.4125,0.4124,0.4123,0.4131,0.4138,0.416,0.412,0.4121,0.4117,0.4115,0.4134,0.4136,0.4142,0.4179,0.418,0.4143,0.4144,0.4145,0.4145,0,0,0,0,0,0,0,0.4103,0.4106,0.4142,0.4125,0.4124,0.4117,0.4118,0.4142,0.4136,0.4121,0.4118,0.412,0.4133,0.414,0.4142,0.418,0.4142,0.4144,0.4146,0.4146,0.4255,0.4257,0,0,0,0,0,0,0.4103,0.4105,0.4141,0.4142,0.4109,0.4119,0.412,0.413,0.4135,0.4134,0.4122,0.4119,0.4137,0.4139,0.4142,0.4194,0.4145,0.4147,0.4148,0.4253,0.4255,0.4257,0,0,0,0,0,0,0.4102,0.4106,0.4141,0.4123,0.4127,0.4122,0.4133,0.4131,0.4138,0.4136,0.4135,0.4129,0.4136,0.4139,0.417,0.4194,0.4147,0.4149,0.4251,0.4254,0.4256,0.4296,0,0,0,0,0,0,0.4101,0.4106,0.4121,0.4124,0.4128,0.4167,0.4134,0.4133,0.4141,0.4138,0.4143,0.4142,0.4135,0.4167,0.4172,0.4196,0.4151,0.4249,0.4253,0.4255,0.4292,0.4299,0.4305,0,0,0,0,0,0.4099,0.4132,0.4122,0.4127,0.4147,0.4169,0.4171,0.4161,0.4143,0.4159,0.4158,0.4142,0.419,0.417,0.4176,0.42,0.4248,0.4252,0.4255,0.4289,0.4298,0.4305,0,0,0,0,0,0,0.4133,0.4132,0.4121,0.4156,0.4163,0.4163,0.4183,0.417,0.4183,0.4179,0.4167,0.4169,0.4202,0.4204,0.4182,0.4242,0.4216,0.4221,0.424,0.4248,0.4255,0.4254,0.4153,0,0,0,0,0,0.4145,0.4162,0.416,0.4191,0.4195,0.4189,0.4198,0.4189,0.4196,0.4199,0.42,0.4208,0.4225,0.4236,0.4252,0.4292,0.4294,0.4312,0.4318,0.4323,0.4329,0.4352,0.436,0.4269,0.4269,0.4269,0,0,0.4169,0.417,0.4182,0.4198,0.4202,0.4221,0.4191,0.4212,0.4227,0.4202,0.4232,0.4233,0.4241,0.4277,0.4293,0.428,0.4354,0.4328,0.4333,0.4335,0.4357,0.4365,0.4373,0.4272,0.4272,0.4271,0,0,0.4223,0.4225,0.4252,0.4257,0.4263,0.4259,0.4266,0.4269,0.4269,0.4297,0.428,0.4298,0.4326,0.4333,0.4341,0.4399,0.4386,0.4404,0.4438,0.4461,0.4469,0.4475,0.4498,0.4506,0.4409,0.4409,0.4409,0,0.4252,0.428,0.4267,0.429,0.4298,0.4277,0.4305,0.431,0.4322,0.4329,0.4313,0.435,0.4354,0.4392,0.4407,0.4413,0.4421,0.4404,0.4468,0.4475,0.448,0.4502,0.451,0.4411,0.4411,0.4411,0.441,0,0.4317,0.4336,0.4357,0.4369,0.4379,0.4404,0.4397,0.4409,0.44,0.4398,0.4429,0.4433,0.4449,0.4457,0.4449,0.4495,0.4487,0.447,0.4444,0.4492,0.4512,0.452,0.4414,0.4414,0.4413,0.4412,0,0,0.4393,0.4398,0.4406,0.4412,0.4418,0.4433,0.4458,0.4474,0.4486,0.4494,0.4516,0.4542,0.4526,0.4535,0.4527,0.4547,0.4595,0.4528,0.4528,0.4542,0.4649,0.4663,0.4672,0.4586,0.4587,0.4588,0.4649,0,0.4448,0.449,0.448,0.4523,0.4541,0.4522,0.4543,0.455,0.4549,0.4566,0.4565,0.4584,0.4561,0.4566,0.4585,0.4585,0.4617,0.458,0.4608,0.4609,0.4608,0.4682,0.4697,0.4753,0.4656,0.4657,0.4658,0,0.4517,0.4529,0.4574,0.4578,0.4586,0.4606,0.462,0.4636,0.4644,0.4641,0.4651,0.464,0.4666,0.4638,0.4675,0.4651,0.4661,0.4663,0.4665,0.4668,0.4638,0.469,0.4771,0.478,0.467,0.4669,0.4668,0,0.4571,0.4598,0.4628,0.4634,0.4639,0.4654,0.4657,0.4664,0.4674,0.4687,0.4694,0.471,0.4719,0.4732,0.4726,0.4706,0.4765,0.4736,0.4765,0.4766,0.478,0.4779,0.4866,0.4784,0.4784,0.4783,0.4783,0,0.4634,0.4663,0.4653,0.4672,0.4703,0.4692,0.4724,0.4725,0.4731,0.4751,0.4734,0.4753,0.4743,0.4762,0.4757,0.4789,0.4793,0.4793,0.4792,0.4796,0.4796,0.4804,0.48,0.4786,0.4785,0.4785,0.4784,0,0.47,0.4694,0.4726,0.4729,0.4731,0.4754,0.4757,0.4776,0.4773,0.4798,0.4804,0.4801,0.4822,0.4816,0.4839,0.4836,0.4878,0.4871,0.4875,0.4874,0.4905,0.4903,0.5001,0.5014,0.4921,0.4922,0.4923,0,0.4741,0.4763,0.4768,0.478,0.4785,0.4804,0.4815,0.4805,0.4817,0.4829,0.4846,0.4866,0.4881,0.4916,0.4917,0.4935,0.4929,0.4962,0.4932,0.4935,0.4932,0.4931,0.4934,0.4969,0.497,0.497,0.4971,0,0.4816,0.4812,0.4828,0.4844,0.4858,0.487,0.488,0.4891,0.4882,0.4897,0.4918,0.493,0.4954,0.4974,0.4991,0.4996,0.4983,0.4981,0.4989,0.4994,0.4996,0.4997,0.4894,0.4979,0.4978,0.4977,0.4977,0.4977,0.4872,0.4891,0.4898,0.4917,0.4924,0.4934,0.4952,0.4952,0.497,0.4989,0.4982,0.5007,0.5016,0.5037,0.5044,0.5064,0.5052,0.5063,0.5066,0.5069,0.5074,0.4992,0.5067,0.5066,0.5066,0.5066,0.5066,0,0.4947,0.4951,0.4969,0.4984,0.5,0.4985,0.4996,0.5011,0.5033,0.5042,0.5058,0.5083,0.5103,0.5105,0.5125,0.5141,0.5136,0.5146,0.5146,0.5148,0.5083,0.5075,0.515,0.515,0.515,0.515,0.515,0.515,0.4989,0.502,0.5018,0.5054,0.5057,0.5082,0.509,0.51,0.5107,0.5137,0.5153,0.5154,0.5161,0.5181,0.5199,0.52,0.5208,0.5222,0.522,0.516,0.5152,0.5144,0.5136,0.5223,0.5224,0.5283,0.5284,0.5284]},{"header":{"parameterUnit":"m.s-1","parameterCategory":1,"la1":30.2991,"la2":30.254,"lo1":-89.0895,"lo2":-89.0444,"dy":0.0017,"dx":0.0017,"nx":28,"ny":28,"refTime":"2024-12-09T09:00:00:Z","depth":0,"parameterNumber":3,"parameterNumberName":"V-component_of_WINDS"},"data":[0,0,0,0,0,0,0,0,0,0,0,0,0,0,0,0,0,0,0,0,0,0,0,0,0,0,0,0,0,0,0,0,0,0,0,0,0,0,0,0,0,0,0,0,0,0,0,0,0,0,0,0,0,0,0,0,0,0,3.9558,3.9559,0,3.9694,3.9695,3.9697,3.9699,3.9698,3.9696,3.9694,3.9835,3.984,3.9846,0,0,0,0,0,0,0,0,0,0,0,0,0,3.9302,3.9307,3.9557,3.9559,3.9561,3.9693,3.9695,3.9697,3.97,3.9697,3.9695,3.9693,3.9834,3.984,3.9846,0,0,0,0,0,0,0,0,0,0,0,0,0,3.9423,3.9309,3.9557,3.9578,3.9581,3.9693,3.9695,3.9698,3.97,3.9697,3.9695,3.9692,3.9831,3.9839,3.9847,3.9948,0,0,3.9872,3.9875,0,0,0,0,0,0,0,0,3.9416,3.9433,3.9573,3.9577,3.9581,3.9677,3.9657,3.9782,3.9701,3.9655,3.9694,3.9691,3.9785,3.9796,3.9828,3.9954,3.996,3.9872,3.9877,3.9881,3.9883,0,0,0,0,0,0,0,3.9408,3.9427,3.9611,3.9575,3.958,3.9581,3.9596,3.9681,3.9733,3.9659,3.9659,3.9675,3.9786,3.982,3.9831,3.9962,3.9872,3.9879,3.9884,3.9887,4.0181,4.0184,0,0,0,0,0,0,3.9395,3.942,3.9607,3.9615,3.949,3.9588,3.9604,3.9649,3.9732,3.9742,3.9677,3.9675,3.9807,3.9822,3.9836,3.9962,3.9881,3.9888,3.9893,4.0178,4.0182,4.0185,0,0,0,0,0,0,3.939,3.9412,3.9602,3.9518,3.9542,3.9595,3.9645,3.9653,3.9686,3.9746,3.9755,3.9702,3.9806,3.9825,3.992,3.9966,3.9892,3.9899,4.0175,4.018,4.0184,4.0212,0,0,0,0,0,0,3.9382,3.941,3.9448,3.9519,3.9547,3.9683,3.9648,3.9657,3.97,3.9698,3.9771,3.9781,3.9805,3.9908,3.9928,3.9976,3.9905,4.0171,4.0177,4.0182,4.0207,4.0217,4.0225,0,0,0,0,0,3.9373,3.945,3.945,3.9472,3.9595,3.9686,3.9702,3.9728,3.9703,3.9743,3.9781,3.9779,3.9957,3.9918,3.9941,3.9991,4.0168,4.0175,4.0182,4.0203,4.0215,4.0225,0,0,0,0,0,0,3.9384,3.946,3.946,3.9562,3.9617,3.9686,3.9736,3.9739,3.9803,3.9798,3.9828,3.9845,3.9941,3.9975,3.993,4.0094,4.006,4.0072,4.0069,4.008,4.0089,4.008,3.9912,0,0,0,0,0,3.9398,3.9464,3.9527,3.9611,3.9639,3.9683,3.9723,3.9739,3.9797,3.9821,3.9866,3.9924,3.9993,4.0038,4.0105,4.0211,4.0229,4.0258,4.0266,4.0273,4.0284,4.0345,4.036,4.0208,4.0207,4.0207,0,0,3.9428,3.9477,3.9518,3.9615,3.9659,3.9729,3.9703,3.9776,3.9829,3.9832,3.9926,3.9961,4.0028,4.013,4.0177,4.0162,4.033,4.0282,4.0287,4.0294,4.0354,4.0368,4.0381,4.0212,4.0211,4.0211,0,0,3.9518,3.9562,3.9638,3.9683,3.9751,3.978,3.9798,3.9867,3.989,3.9985,3.9989,4.0052,4.017,4.0218,4.0258,4.0368,4.0369,4.0389,4.0437,4.0496,4.0508,4.0519,4.0561,4.0575,4.0399,4.0399,4.0399,0,3.9547,3.9652,3.9676,3.9751,3.9795,3.9801,3.9879,3.9922,4.0008,4.0039,4.002,4.017,4.0215,4.0329,4.0357,4.0388,4.0411,4.0382,4.0504,4.0516,4.0526,4.0566,4.0582,4.0401,4.0401,4.0401,4.04,0,3.9685,3.9757,3.9811,3.9894,3.9944,4.002,4.0057,4.0104,4.0115,4.0147,4.0244,4.0298,4.0377,4.0405,4.0416,4.0522,4.0511,4.0498,4.0465,4.0542,4.0581,4.0596,4.0404,4.0403,4.0403,4.0402,0,0,3.9787,3.9884,3.9903,3.9943,4.0018,4.0075,4.0152,4.0229,4.027,4.033,4.0397,4.0497,4.0486,4.0531,4.0548,4.06,4.0687,4.0581,4.0583,4.0601,4.081,4.0821,4.0839,4.0687,4.069,4.0692,4.0805,0,3.9888,4.0025,4.005,4.017,4.0238,4.0245,4.0312,4.0367,4.0398,4.0462,4.0496,4.0568,4.0547,4.0574,4.0626,4.0665,4.073,4.0657,4.0752,4.0755,4.0737,4.0858,4.087,4.0974,4.082,4.0823,4.0825,0,4.0024,4.0087,4.0214,4.0283,4.0312,4.0372,4.0447,4.0506,4.0569,4.0588,4.0639,4.065,4.0732,4.0694,4.0808,4.0758,4.0798,4.0823,4.0828,4.084,4.0796,4.0876,4.1008,4.1024,4.0848,4.0846,4.0845,0,4.0089,4.0206,4.0297,4.033,4.0412,4.0454,4.049,4.055,4.0596,4.066,4.0691,4.0764,4.0804,4.0861,4.0893,4.0861,4.1006,4.0969,4.1026,4.1026,4.1058,4.1056,4.1201,4.108,4.1079,4.1079,4.1079,0,4.02,4.0278,4.0328,4.0385,4.0473,4.0501,4.0588,4.0623,4.0677,4.0742,4.0751,4.0812,4.0848,4.0915,4.094,4.1032,4.105,4.1069,4.1075,4.107,4.1068,4.1098,4.1093,4.1083,4.1082,4.1082,4.1081,0,4.0289,4.0325,4.0426,4.0495,4.0514,4.0576,4.0636,4.0692,4.0723,4.0805,4.0826,4.0875,4.0954,4.099,4.1088,4.1104,4.1211,4.121,4.119,4.1193,4.1249,4.1244,4.142,4.1446,4.1305,4.1306,4.1307,0,4.0359,4.0419,4.0495,4.0539,4.0576,4.0646,4.0693,4.0724,4.0772,4.0849,4.0896,4.0975,4.104,4.1166,4.1211,4.1286,4.129,4.1346,4.1301,4.1295,4.1294,4.1291,4.1299,4.1355,4.1357,4.1358,4.1359,0,4.048,4.0495,4.0562,4.0636,4.0691,4.0751,4.0809,4.0845,4.0885,4.0939,4.102,4.107,4.117,4.1249,4.1327,4.1366,4.137,4.1372,4.139,4.1386,4.1373,4.1384,4.1215,4.1369,4.1368,4.1367,4.1366,4.1366,4.0563,4.0618,4.0681,4.0756,4.0803,4.0857,4.0914,4.0953,4.102,4.1104,4.1118,4.1205,4.1267,4.1373,4.1414,4.1483,4.147,4.1495,4.1502,4.1508,4.1513,4.136,4.1497,4.1497,4.1496,4.1496,4.1496,0,4.0688,4.0729,4.0797,4.0879,4.0938,4.0935,4.1,4.1051,4.1127,4.1184,4.1249,4.1342,4.142,4.1471,4.155,4.1595,4.16,4.1615,4.1614,4.1623,4.1518,4.1497,4.1611,4.1611,4.1611,4.1611,4.1611,4.1611,4.076,4.0853,4.0876,4.0994,4.1034,4.1119,4.1157,4.1208,4.1255,4.1359,4.1423,4.1456,4.1512,4.1595,4.1667,4.168,4.171,4.1726,4.174,4.1642,4.163,4.1618,4.1598,4.1732,4.1732,4.1839,4.184,4.184]}]]